Location: Casa Rossa
(45.2389°N, 12.2056°E)
Time: 23:21:16
(UTC+00:00)

ADEOS II - Pass Details

Date: 14 July 2020
Orbit: 799 x 801 km, 98.5° (Epoch: 14 August)

Event Time Altitude Azimuth Distance (km) Brightness Sun altitude
Rises 01:17:29 0° 17° (NNE) 3,321 6.9 -17.7°
Reaches altitude 10° 01:19:53 10° 22° (NNE) 2,386 5.8 -17.5°
Maximum altitude 01:25:04 57° 101° (E) 936 2.5 -17.1°
Enters shadow 01:28:38 20° 174° (S) 1,770 3.4 -16.7°
